Back to catalog

STARLINK-35330

AliveCommunicationsSSO
NORAD 65791·PAYLOAD·🇺🇸 United States

Launched Sep 26, 2025 from Vandenberg Space Force Base

Loading…

Next Passes (next 24 hours)

TLE

FreshSource: CelesTrak SupGP

Epoch: Sep 14, 2026, 15:23 UTC

1 65791C 25218A   26257.64145833 -.00018700  00000+0 -58053-3 0  2570
2 65791  97.2846 115.0451 0001766  84.6958 234.3816 15.33446334    17

Track STARLINK-35330 in real time with AllMySat

Download on the App Store